Weather History for KFXY - January, 2014

Change the Weather History Date:

Tuesday, January 14, 2014

  Actual Average Record
Temperature  
Mean Temperature 22 °F -  
Max Temperature 33 °F 23 °F 33 °F (2014)
Min Temperature 10 °F 5 °F 3 °F (2012)
Degree Days  
Heating Degree Days 44    
Moisture  
Dew Point 18 °F    
Average Humidity 81    
Maximum Humidity 93    
Minimum Humidity 67    
Precipitation  
Precipitation 0.09 in - - ()
Sea Level Pressure  
Sea Level Pressure 29.82 in    
Wind  
Wind Speed 19 mph (NW)    
Max Wind Speed 36 mph    
Max Gust Speed 48 mph    
Visibility 7 miles    
Events Rain , Snow    
Averages and records for this station are not official NWS values.
T = Trace of Precipitation, MM = Missing Value Source: NWS Daily Summary

Daily Weather History Graph

Daily Weather History Graph

Search for Another Location

Airport or City:

Trip Planner

Search our weather history database for the weather conditions in past years. The results will help you decide how hot, cold, wet, or windy it might be!

Date:

Astronomy

Jan. 14, 2014 Rise Set
Actual Time 7:44 AM CST 5:03 PM CST
Civil Twilight 7:12 AM CST 5:35 PM CST
Nautical Twilight 6:37 AM CST 6:10 PM CST
Astronomical Twilight 6:03 AM CST 6:44 PM CST
Moon 4:10 PM CST (1/14) 6:18 AM CST (1/14)
Length of Visible Light 10h 22m
Length of Day
9h 19m
Waxing Gibbous, 98% of the Moon is Illuminated
Jan 14
Waxing Gibbous
Jan 15
Full
Jan 23
Last Quarter
Jan 30
New
Feb 6
First Quarter

Hourly Weather History & Observations

Time (CST) Temp. Windchill Dew Point Humidity Pressure Visibility Wind Dir Wind Speed Gust Speed Precip Events Conditions
12:15 AM 32.0 °F 23.0 °F 26.6 °F 80% 29.51 in 10.0 mi South 11.5 mph - N/A   Scattered Clouds
12:35 AM 32.0 °F 21.6 °F 26.6 °F 80% 29.50 in 10.0 mi SSW 15.0 mph 21.9 mph N/A   Scattered Clouds
12:55 AM 32.0 °F 23.0 °F 26.6 °F 80% 29.49 in 10.0 mi SSW 11.5 mph 18.4 mph N/A   Mostly Cloudy
1:15 AM 32.0 °F 23.6 °F 28.4 °F 87% 29.48 in 10.0 mi SSW 10.4 mph - N/A   Overcast
1:35 AM 32.0 °F 24.2 °F 28.4 °F 87% 29.48 in 7.0 mi SSW 9.2 mph - N/A   Overcast
1:55 AM 32.0 °F 24.8 °F 30.2 °F 93% 29.47 in 7.0 mi SW 8.1 mph - 0.01 in   Overcast
2:15 AM 32.0 °F 24.8 °F 30.2 °F 93% 29.47 in 5.0 mi SW 8.1 mph - 0.02 in Rain Rain
2:35 AM 33.8 °F 27.7 °F 32.0 °F 93% 29.47 in 7.0 mi SW 6.9 mph - 0.03 in Rain Light Rain
2:55 AM 33.8 °F 29.6 °F 32.0 °F 93% 29.48 in 5.0 mi WSW 4.6 mph - 0.03 in Snow Light Snow
3:15 AM 33.8 °F 24.8 °F 32.0 °F 93% 29.49 in 4.0 mi West 12.7 mph - N/A Snow Light Snow
3:35 AM 33.8 °F 25.8 °F 32.0 °F 93% 29.50 in 1.5 mi WNW 10.4 mph 16.1 mph N/A Snow Light Snow
3:55 AM 33.8 °F 22.2 °F 32.0 °F 93% 29.51 in 5.0 mi WNW 20.7 mph 26.5 mph 0.02 in Snow Light Snow
4:15 AM 33.8 °F 21.6 °F 32.0 °F 93% 29.52 in 10.0 mi NW 23.0 mph 31.1 mph 0.02 in   Overcast
4:35 AM 33.8 °F 21.6 °F 32.0 °F 93% 29.53 in 10.0 mi NW 23.0 mph 31.1 mph 0.02 in   Overcast
4:55 AM 33.8 °F 19.9 °F 32.0 °F 93% 29.56 in 10.0 mi NW 31.1 mph 39.1 mph 0.03 in   Overcast
5:15 AM 32.0 °F 18.4 °F 30.2 °F 93% 29.58 in 10.0 mi NW 26.5 mph 42.6 mph N/A   Overcast
5:35 AM 32.0 °F 17.4 °F 28.4 °F 87% 29.60 in 10.0 mi NW 31.1 mph 40.3 mph N/A   Overcast
5:55 AM 30.2 °F 15.9 °F 26.6 °F 86% 29.61 in 10.0 mi WNW 26.5 mph 36.8 mph N/A   Overcast
6:15 AM 30.2 °F 14.9 °F 24.8 °F 80% 29.62 in 10.0 mi NW 31.1 mph 41.4 mph N/A   Overcast
6:35 AM 28.4 °F 11.6 °F 23.0 °F 80% 29.65 in 10.0 mi WNW 35.7 mph 48.3 mph N/A   Overcast
6:55 AM 28.4 °F 13.5 °F 23.0 °F 80% 29.65 in 10.0 mi WNW 26.5 mph 40.3 mph N/A   Overcast
7:15 AM 28.4 °F 13.8 °F 21.2 °F 74% 29.67 in 10.0 mi NW 25.3 mph 40.3 mph N/A   Overcast
7:35 AM 28.4 °F 12.3 °F 21.2 °F 74% 29.68 in 10.0 mi NW 32.2 mph 42.6 mph N/A   Overcast
7:55 AM 26.6 °F 11.4 °F 21.2 °F 80% 29.70 in 10.0 mi NW 25.3 mph 34.5 mph N/A   Overcast
8:15 AM 26.6 °F 11.1 °F 21.2 °F 80% 29.71 in 10.0 mi NW 26.5 mph 39.1 mph N/A   Overcast
8:35 AM 26.6 °F 10.3 °F 21.2 °F 80% 29.73 in 7.0 mi NW 29.9 mph 40.3 mph N/A   Overcast
8:55 AM 24.8 °F 8.1 °F 19.4 °F 80% 29.75 in 5.0 mi NW 28.8 mph 40.3 mph N/A Snow Light Snow
9:15 AM 24.8 °F 8.1 °F 19.4 °F 80% 29.76 in 7.0 mi NW 28.8 mph 40.3 mph N/A Snow Light Snow
9:35 AM 24.8 °F 7.9 °F 19.4 °F 80% 29.78 in 7.0 mi NW 29.9 mph 43.7 mph N/A Snow Light Snow
9:55 AM 24.8 °F 9.6 °F 19.4 °F 80% 29.79 in 5.0 mi NW 23.0 mph 35.7 mph N/A Snow Light Snow
10:15 AM 24.8 °F 7.9 °F 19.4 °F 80% 29.80 in 4.0 mi NW 29.9 mph 35.7 mph N/A Snow Light Snow
10:35 AM 24.8 °F 8.7 °F 19.4 °F 80% 29.81 in 4.0 mi NW 26.5 mph 36.8 mph N/A Snow Light Snow
10:55 AM 23.0 °F 8.7 °F 19.4 °F 86% 29.82 in 2.5 mi NW 18.4 mph 32.2 mph N/A Snow Light Snow
11:15 AM 23.0 °F 7.2 °F 17.6 °F 80% 29.83 in 2.5 mi NW 23.0 mph 33.4 mph N/A Snow Light Snow
11:35 AM 23.0 °F 9.2 °F 17.6 °F 80% 29.83 in 2.0 mi NW 17.3 mph 32.2 mph N/A Snow Light Snow
11:55 AM 23.0 °F 7.2 °F 17.6 °F 80% 29.85 in 2.0 mi NW 23.0 mph 34.5 mph N/A Snow Light Snow
12:15 PM 23.0 °F 8.0 °F 17.6 °F 80% 29.84 in 2.0 mi NW 20.7 mph 31.1 mph N/A Snow Light Snow
12:35 PM 23.0 °F 6.6 °F 17.6 °F 80% 29.85 in 3.0 mi NW 25.3 mph 34.5 mph N/A Snow Light Snow
12:55 PM 23.0 °F 6.6 °F 17.6 °F 80% 29.85 in 2.0 mi NW 25.3 mph 34.5 mph N/A Snow Light Snow
1:15 PM 23.0 °F 6.6 °F 17.6 °F 80% 29.86 in 2.5 mi NW 25.3 mph 31.1 mph N/A Snow Light Snow
1:35 PM 23.0 °F 7.6 °F 17.6 °F 80% 29.88 in 2.0 mi NW 21.9 mph 28.8 mph N/A Snow Light Snow
1:55 PM 23.0 °F 6.9 °F 17.6 °F 80% 29.88 in 4.0 mi NW 24.2 mph 34.5 mph N/A Snow Light Snow
2:15 PM 23.0 °F 7.2 °F 15.8 °F 74% 29.89 in 7.0 mi NW 23.0 mph 28.8 mph N/A Snow Light Snow
2:35 PM 21.2 °F 6.0 °F 15.8 °F 80% 29.91 in 5.0 mi NW 19.6 mph 33.4 mph N/A Snow Light Snow
2:55 PM 21.2 °F 4.5 °F 15.8 °F 80% 29.92 in 3.0 mi NW 24.2 mph 31.1 mph N/A Snow Light Snow
3:15 PM 21.2 °F 3.9 °F 15.8 °F 80% 29.93 in 1.2 mi NW 26.5 mph 31.1 mph N/A Snow Light Snow
3:35 PM 21.2 °F 4.5 °F 14.0 °F 74% 29.95 in 7.0 mi NW 24.2 mph 29.9 mph N/A Snow Light Snow
3:55 PM 21.2 °F 5.2 °F 14.0 °F 74% 29.97 in 7.0 mi NW 21.9 mph 29.9 mph N/A Snow Light Snow
4:15 PM 19.4 °F 2.5 °F 12.2 °F 74% 29.98 in 7.0 mi NW 23.0 mph 32.2 mph N/A Snow Light Snow
4:35 PM 19.4 °F 2.5 °F 12.2 °F 74% 29.99 in 7.0 mi NW 23.0 mph 31.1 mph N/A Snow Light Snow
4:55 PM 19.4 °F 2.8 °F 12.2 °F 74% 29.99 in 7.0 mi NW 21.9 mph 28.8 mph N/A Snow Light Snow
5:15 PM 19.4 °F 3.2 °F 14.0 °F 80% 30.01 in 2.5 mi NW 20.7 mph 31.1 mph N/A Snow Light Snow
5:35 PM 19.4 °F 3.2 °F 12.2 °F 74% 30.01 in 10.0 mi NW 20.7 mph 27.6 mph N/A   Overcast
5:55 PM 17.6 °F 3.2 °F 10.4 °F 73% 30.02 in 10.0 mi NW 15.0 mph 32.2 mph N/A   Overcast
6:15 PM 17.6 °F 1.3 °F 10.4 °F 73% 30.03 in 10.0 mi NW 19.6 mph 31.1 mph N/A   Scattered Clouds
6:35 PM 17.6 °F 1.3 °F 10.4 °F 73% 30.04 in 10.0 mi NW 19.6 mph 25.3 mph N/A   Clear
6:55 PM 15.8 °F -0.2 °F 10.4 °F 79% 30.05 in 10.0 mi NW 17.3 mph 31.1 mph N/A Snow Light Snow
7:15 PM 14.0 °F -3.9 °F 8.6 °F 79% 30.06 in 10.0 mi NW 20.7 mph 29.9 mph N/A   Scattered Clouds
7:35 PM 14.0 °F -2.0 °F 8.6 °F 79% 30.06 in 10.0 mi NW 16.1 mph 23.0 mph N/A   Scattered Clouds
7:55 PM 14.0 °F -3.9 °F 8.6 °F 79% 30.06 in 7.0 mi NW 20.7 mph 25.3 mph N/A Snow Light Snow
8:15 PM 14.0 °F -3.0 °F 8.6 °F 79% 30.06 in 10.0 mi NW 18.4 mph 27.6 mph N/A   Scattered Clouds
8:35 PM 14.0 °F -2.5 °F 8.6 °F 79% 30.07 in 10.0 mi NNW 17.3 mph 25.3 mph N/A   Clear
8:55 PM 14.0 °F -3.4 °F 6.8 °F 73% 30.07 in 10.0 mi NW 19.6 mph 27.6 mph N/A   Clear
9:15 PM 12.2 °F -5.3 °F 6.8 °F 79% 30.08 in 10.0 mi NW 18.4 mph 24.2 mph N/A   Clear
9:35 PM 12.2 °F -5.3 °F 6.8 °F 79% 30.08 in 7.0 mi NW 18.4 mph 24.2 mph N/A   Scattered Clouds
9:55 PM 12.2 °F -5.8 °F 5.0 °F 73% 30.09 in 10.0 mi NNW 19.6 mph 26.5 mph N/A   Scattered Clouds
10:15 PM 12.2 °F -5.3 °F 5.0 °F 73% 30.10 in 10.0 mi NNW 18.4 mph 28.8 mph N/A   Clear
10:35 PM 12.2 °F -4.8 °F 3.2 °F 67% 30.10 in 10.0 mi NNW 17.3 mph 23.0 mph N/A   Clear
10:55 PM 10.4 °F -6.0 °F 5.0 °F 79% 30.10 in 10.0 mi NNW 15.0 mph 19.6 mph N/A   Clear
11:15 PM 10.4 °F -7.2 °F 3.2 °F 73% 30.10 in 10.0 mi NNW 17.3 mph 21.9 mph N/A   Clear
11:35 PM 10.4 °F -8.2 °F 3.2 °F 73% 30.10 in 10.0 mi NNW 19.6 mph 25.3 mph N/A   Clear
11:55 PM 10.4 °F -6.0 °F 3.2 °F 73% 30.11 in 10.0 mi NNW 15.0 mph 23.0 mph N/A   Clear